Theta_e
330 326 328 327 325 326 327 328 330 333 330 329 335 334 333 335 334 333 332 332 331 331 332 330 330 331 331 333 333 334 334 333 331 332 334 333 333 332 332 333 333 332 332 332 331 331 331 329 328 327 325 320 318 317 314 314 315 317 320 322 324 325 324 324 325 325 325 324 324 322 320 321 322 322 322 322 321 321 321 320 319 318 320 325 328
332 326 327 329 330 327 327 331 333 334 331 330 336 335 334 336 333 332 332 331 331 331 331 330 330 331 332 334 334 334 334 334 333 332 332 333 333 332 332 333 333 333 332 332 332 332 331 330 329 328 327 325 322 320 318 314 311 310 311 314 318 321 323 324 323 323 323 321 321 321 319 318 319 320 320 320 319 320 320 320 318 318 319 322 326
333 325 326 333 334 331 330 332 333 334 332 331 336 335 335 336 333 332 332 330 332 332 331 330 331 331 332 333 334 333 334 335 333 331 331 332 333 332 332 333 333 332 332 332 332 332 332 331 330 329 328 327 325 324 322 316 311 307 306 307 309 313 317 321 322 321 321 321 318 318 317 315 315 315 317 316 317 318 319 320 318 317 318 319 321
333 326 328 334 334 332 331 331 331 333 334 332 335 336 335 336 332 331 333 331 332 332 331 331 331 331 331 333 333 333 334 335 333 331 331 332 333 333 332 333 333 332 332 332 332 332 332 331 331 329 328 327 327 326 323 316 308 306 305 304 305 306 309 314 318 318 318 318 316 314 313 311 311 312 313 314 315 317 319 321 319 317 318 318 319
333 330 330 333 334 333 331 331 332 333 334 332 334 336 335 335 333 332 333 332 333 333 332 330 329 330 331 332 332 333 334 335 333 332 331 330 332 334 333 333 333 332 332 332 332 332 332 331 330 329 328 328 327 327 326 319 309 304 304 304 304 304 304 307 312 315 314 314 314 311 309 308 308 310 313 315 316 317 319 320 320 319 318 318 318
334 331 330 332 333 333 331 331 331 332 334 333 333 335 335 335 334 332 332 332 333 333 331 329 329 329 331 332 331 332 334 336 335 333 331 330 331 333 334 334 334 334 333 333 332 332 332 332 330 329 329 329 328 328 327 324 313 304 304 305 305 307 308 308 310 314 313 313 311 308 307 307 307 310 314 316 316 317 319 320 320 320 319 318 319
332 330 331 332 332 333 333 331 330 331 332 332 333 334 335 335 333 331 330 330 332 331 329 329 330 330 330 332 332 332 334 336 336 335 333 331 331 332 333 334 334 334 335 333 333 333 332 332 331 330 330 329 329 328 326 326 317 305 304 307 308 309 311 313 314 314 314 313 309 307 308 307 307 311 314 315 317 318 318 319 320 320 319 318 319
328 330 329 330 332 332 333 332 330 331 331 331 334 334 333 334 332 330 328 329 331 330 330 330 330 330 330 331 332 332 334 337 337 336 334 332 331 331 333 334 334 334 335 335 333 333 333 332 331 331 330 329 330 328 326 326 318 305 304 310 310 309 309 313 315 314 314 312 307 308 310 307 308 312 314 316 319 318 318 319 320 319 319 319 319
325 333 331 327 329 331 332 332 331 331 331 331 333 333 332 332 331 329 328 328 329 330 331 331 331 331 331 332 332 332 334 337 337 337 335 332 329 331 333 333 334 334 334 335 335 334 333 332 331 331 331 330 330 329 327 326 319 307 307 312 313 311 308 310 314 314 313 312 309 311 313 310 312 316 318 319 320 319 319 319 319 319 319 320 319
322 332 336 329 326 330 331 329 328 329 330 330 328 329 329 330 330 329 328 329 329 330 331 333 332 331 330 331 333 334 335 336 335 336 337 333 329 330 333 333 334 334 334 335 335 335 334 332 332 331 331 331 330 329 328 327 322 312 310 313 313 312 310 309 311 312 312 312 312 315 316 316 317 319 320 320 320 320 319 319 319 319 319 319 319
326 328 335 335 328 328 330 328 327 328 328 329 326 324 327 328 327 328 329 329 329 329 331 334 333 332 332 332 334 335 336 336 336 337 337 334 330 328 331 334 334 334 334 334 335 335 334 333 332 331 331 331 330 329 329 327 324 318 312 312 313 312 313 313 311 311 311 311 314 317 318 319 319 320 320 320 320 320 320 319 319 319 319 318 318
330 329 333 337 332 328 330 330 330 331 329 330 328 322 323 327 326 327 329 329 329 329 330 333 334 333 334 334 334 335 336 336 337 339 337 336 333 329 331 333 334 335 334 335 335 335 335 334 333 331 331 331 330 330 329 328 326 322 315 310 311 312 312 312 313 314 313 313 316 319 319 320 320 320 320 320 320 320 320 319 319 319 319 318 316
327 329 330 335 334 331 333 332 331 334 333 332 330 322 320 326 326 325 327 328 329 330 331 333 335 334 335 335 334 335 337 336 338 338 336 335 334 331 331 333 335 335 335 335 335 335 335 334 333 332 331 331 330 330 330 328 326 325 320 311 310 311 311 311 313 316 316 316 318 319 319 320 319 320 320 320 320 320 320 319 319 319 318 316 315
325 329 328 329 333 333 334 333 330 333 335 334 331 325 321 325 327 326 326 327 328 330 333 335 335 335 335 336 335 336 337 335 337 339 336 334 334 332 331 332 335 336 335 335 335 335 335 335 334 333 332 332 331 331 330 329 326 326 324 316 310 310 312 312 314 316 318 318 318 318 319 319 319 319 320 320 320 319 319 319 318 317 317 315 313
329 330 328 327 332 334 333 332 329 328 330 331 329 326 323 323 326 326 324 324 325 328 332 335 335 336 336 337 337 337 337 336 337 338 336 335 334 333 332 333 336 337 335 335 335 335 335 335 335 334 333 332 331 331 330 330 328 326 326 322 312 309 312 313 314 317 318 318 317 318 319 319 319 319 319 319 319 319 318 318 317 316 315 314 313
331 331 331 330 333 334 332 330 329 327 324 323 323 323 324 324 324 325 324 321 321 325 331 334 334 336 336 336 338 337 337 336 336 336 337 337 333 331 331 331 335 337 336 335 335 335 335 336 335 334 334 333 332 331 330 330 329 327 326 324 317 310 309 312 314 316 318 318 318 319 319 319 319 319 319 318 318 318 318 317 317 317 315 312 310
330 331 331 331 332 335 333 329 328 328 322 317 317 318 321 326 326 325 324 320 319 323 329 332 333 335 335 335 336 337 336 336 336 336 336 335 332 329 327 327 331 336 336 336 335 335 336 336 336 335 334 333 333 331 331 330 330 329 326 325 322 313 307 310 314 316 317 318 318 319 319 319 319 319 318 317 317 318 317 317 316 316 315 312 309
329 329 328 330 331 334 335 330 326 327 324 317 315 314 318 325 329 329 326 321 319 322 325 328 331 333 335 335 334 335 335 335 337 336 334 335 334 332 329 325 329 335 336 336 335 336 336 336 336 336 334 334 333 332 331 331 330 330 327 325 325 319 309 307 312 315 317 318 318 318 318 318 318 319 318 315 317 318 317 316 315 313 313 311 310
330 330 330 332 332 333 336 335 329 327 326 320 315 313 315 323 330 331 327 322 319 322 325 327 328 328 331 334 334 335 335 334 335 335 334 336 338 337 334 328 331 336 336 336 336 335 336 335 336 336 335 334 333 332 331 331 331 330 329 326 327 325 317 308 307 312 315 316 317 318 317 318 318 318 318 316 317 317 316 316 314 312 310 309 310
332 331 331 332 332 331 334 337 334 330 328 323 318 314 313 320 330 332 328 323 320 320 326 330 330 326 326 330 334 334 335 335 334 333 333 335 338 338 335 331 333 335 336 337 336 335 335 335 336 336 335 335 334 332 332 331 331 330 330 328 327 328 324 314 306 308 313 315 316 317 318 319 318 318 317 316 317 317 316 314 313 311 309 308 309
335 333 332 331 330 328 331 335 336 334 331 325 321 317 312 316 327 333 330 325 321 319 323 331 333 329 323 325 332 334 334 335 335 334 333 333 337 338 335 333 332 331 333 336 337 335 335 335 336 336 335 335 334 333 332 331 330 329 329 328 327 328 327 321 310 306 312 314 315 316 318 318 317 318 318 317 317 316 314 312 310 309 309 310 309
333 334 333 333 330 328 329 333 335 335 333 327 322 321 318 316 320 327 329 326 322 319 321 327 332 332 326 322 325 329 331 333 334 334 332 330 332 337 337 333 332 331 330 333 335 337 337 336 336 336 335 335 334 334 333 331 328 328 329 328 328 327 328 326 318 309 309 313 315 317 318 319 318 318 319 318 317 314 313 312 309 309 310 310 310
329 329 331 331 331 330 330 333 336 337 335 331 325 321 320 320 320 320 323 323 321 320 322 324 327 330 329 323 319 320 323 324 327 329 329 327 327 332 335 333 333 333 332 332 334 336 337 336 336 336 336 336 335 335 334 331 329 329 329 328 328 328 327 328 324 314 308 310 315 316 318 320 319 318 319 318 316 313 312 312 309 309 310 310 310
326 327 328 328 330 333 335 336 339 339 337 335 330 324 320 321 323 320 318 320 321 322 323 325 326 326 327 325 319 316 317 318 323 327 330 329 327 329 332 332 336 338 337 335 334 336 337 337 336 336 336 336 335 335 334 332 331 330 330 329 328 328 327 327 326 320 310 308 313 316 318 320 320 319 318 318 318 314 311 312 311 309 310 310 310
325 325 326 327 328 334 338 338 339 340 339 337 333 329 324 322 324 322 319 320 323 325 324 325 326 325 326 327 323 319 318 320 324 328 332 331 329 331 330 331 337 339 340 339 336 336 337 337 336 336 336 336 335 335 334 332 332 331 330 329 329 329 328 326 326 325 317 309 311 316 319 320 321 319 319 318 317 314 310 311 311 311 311 311 311
324 325 326 329 330 334 337 337 339 340 340 339 336 332 327 325 328 327 321 319 322 326 327 327 326 326 328 330 327 323 322 324 326 327 332 333 331 331 332 333 337 338 339 340 338 337 337 337 337 337 336 336 336 336 335 333 331 331 329 329 329 329 328 327 326 326 323 313 310 315 318 320 321 320 319 319 316 313 311 310 310 312 312 312 312
326 329 331 333 335 335 333 332 336 340 340 340 340 336 330 327 330 331 328 323 323 325 327 328 328 327 330 332 330 326 324 325 328 329 331 333 333 331 330 333 338 338 338 339 339 337 336 336 337 338 338 337 337 336 335 333 331 330 329 329 329 329 328 328 326 326 326 320 312 313 317 319 320 319 320 319 316 314 314 312 310 312 314 313 313
332 335 335 336 336 336 332 326 328 336 340 340 340 339 337 332 330 331 332 329 326 325 326 328 328 328 330 332 332 330 327 324 328 331 331 332 334 332 328 328 335 339 339 339 339 338 336 336 336 337 339 338 337 337 336 334 331 330 329 328 328 329 328 328 327 326 326 325 319 314 315 318 320 320 320 320 318 316 316 315 312 313 315 314 313
335 336 336 335 332 331 332 328 328 334 339 340 339 340 340 338 334 332 333 334 330 328 327 328 327 328 328 329 330 331 330 326 326 331 333 332 332 333 330 328 329 336 339 339 338 337 337 336 335 336 338 338 338 337 336 335 332 330 329 327 327 328 328 328 327 326 326 326 325 320 316 316 318 320 321 320 320 317 317 317 313 313 316 315 314
337 336 336 335 332 328 329 331 331 333 336 338 338 340 340 340 338 335 334 335 334 331 330 329 328 328 327 326 326 328 329 329 327 329 332 333 332 332 333 332 329 330 335 338 338 338 337 337 336 336 337 337 337 337 337 335 333 331 330 328 327 327 328 328 327 327 327 326 326 324 320 315 315 319 321 321 320 318 317 317 314 312 316 316 315
337 337 336 336 335 331 328 330 330 330 334 337 337 338 339 339 339 338 336 334 335 333 332 331 330 329 327 325 324 323 325 328 330 329 330 333 334 333 333 334 332 329 329 333 337 338 337 337 336 336 336 336 336 337 337 335 333 332 331 329 329 327 328 328 327 327 327 327 326 326 324 318 313 316 320 321 320 318 317 317 315 313 315 316 315
336 336 336 336 336 334 330 329 330 330 332 334 334 335 338 339 339 339 338 336 334 334 332 332 332 331 329 327 324 322 322 325 328 330 330 331 333 334 333 332 334 333 329 330 334 336 337 338 338 337 337 336 336 336 335 335 333 332 332 330 329 329 328 328 328 328 328 327 327 326 325 322 315 313 318 321 320 318 317 317 315 313 314 315 315
336 335 335 336 337 336 333 330 329 330 330 331 332 333 335 339 340 339 339 338 336 334 333 333 333 333 332 331 328 325 324 324 325 327 330 330 330 332 331 329 331 335 333 330 332 335 337 339 339 337 337 337 337 336 335 334 333 333 332 331 330 328 328 328 328 328 328 327 326 325 325 325 319 312 314 319 320 319 318 317 316 314 313 314 314
333 335 335 335 336 337 337 333 329 329 330 330 329 330 333 336 338 338 338 338 337 336 334 333 333 334 334 334 332 329 328 327 324 325 328 329 329 331 331 328 326 331 335 332 331 335 338 339 339 338 338 337 337 337 336 334 333 332 332 332 330 329 328 328 328 327 328 327 326 326 325 325 322 315 312 315 319 319 318 317 316 314 313 313 314
322 331 336 337 336 336 336 337 333 328 328 329 328 329 332 333 335 336 337 338 337 337 336 334 334 334 334 334 334 332 331 330 327 325 326 328 330 332 333 330 324 324 332 335 332 333 337 337 339 339 338 338 338 338 337 336 334 332 332 332 330 329 329 329 328 327 327 327 326 326 326 325 325 320 313 312 315 318 318 317 316 314 313 314 314
317 322 330 335 337 336 336 338 336 331 328 328 327 328 330 331 332 334 335 336 337 337 337 336 335 335 334 334 335 334 333 333 331 328 327 328 332 335 335 334 327 320 328 337 334 332 335 336 337 339 339 338 338 338 338 338 335 333 332 332 331 331 330 330 330 328 327 326 326 327 326 326 325 323 319 313 312 315 317 317 315 313 312 314 315
320 319 323 329 334 336 336 337 336 335 332 328 328 328 328 329 332 334 335 335 336 336 337 338 337 336 335 334 334 333 333 334 334 332 330 329 333 337 338 337 332 323 327 336 337 335 336 336 336 338 339 339 339 339 339 338 337 334 333 333 331 331 331 330 330 330 328 327 326 326 326 326 325 325 323 319 313 312 314 314 314 312 312 314 315
323 323 322 325 328 332 334 335 336 336 335 332 331 330 328 329 331 332 334 335 335 336 337 337 337 337 336 336 335 334 333 333 334 335 334 332 333 337 339 338 336 333 332 336 337 337 337 337 337 338 339 339 339 339 339 338 337 336 334 333 332 331 331 331 331 330 329 328 326 326 326 326 326 325 325 324 319 313 311 312 313 312 312 312 314
323 325 325 324 325 329 332 333 334 336 335 335 334 333 332 332 331 329 331 334 335 335 336 336 337 337 337 337 336 336 335 334 334 336 337 336 335 337 338 338 338 339 338 337 338 338 338 338 339 339 338 339 339 339 339 338 338 336 334 333 332 331 331 330 330 330 330 329 328 327 326 325 325 326 326 325 323 318 312 309 311 312 312 312 313
322 323 325 326 325 327 331 333 333 334 335 335 334 334 334 335 332 328 328 331 333 333 333 335 337 337 337 336 336 336 336 336 336 336 337 338 337 337 338 338 339 340 340 339 339 339 339 338 339 339 339 339 339 339 339 339 338 336 335 334 333 332 331 331 330 330 330 330 330 329 327 326 325 325 326 326 325 323 318 311 309 310 311 312 311
321 322 324 326 327 328 330 332 332 332 334 335 334 334 334 334 333 330 328 329 330 331 331 333 335 337 337 337 336 336 336 337 338 338 336 336 337 337 337 337 338 340 341 340 339 339 340 339 338 339 340 339 339 340 340 339 338 337 336 335 334 333 332 331 330 330 330 330 331 330 329 328 327 325 325 325 325 325 323 318 312 309 309 310 311
322 322 323 325 327 328 329 332 332 332 334 335 334 333 332 332 332 330 329 329 329 329 329 330 333 335 337 337 336 335 335 335 337 337 336 335 335 335 335 335 336 338 340 341 340 339 341 341 339 338 340 340 339 339 339 339 338 337 337 336 335 333 332 332 331 331 330 331 331 331 330 329 328 326 325 325 324 324 324 323 319 315 310 309 310
321 322 322 323 325 327 328 330 332 333 334 334 334 333 332 332 331 330 329 329 328 327 327 328 330 332 335 336 336 336 335 334 334 336 336 336 336 335 334 334 335 336 338 341 341 340 341 341 340 338 337 337 339 339 339 339 339 338 337 336 335 334 333 332 332 331 331 331 331 331 331 330 329 328 327 325 325 324 324 324 323 321 317 312 309
321 322 322 323 324 326 327 329 330 331 332 333 334 333 333 331 330 329 329 330 329 327 327 327 328 329 332 334 335 335 334 333 332 334 335 335 335 335 334 335 336 337 338 340 341 341 341 341 341 339 336 335 337 339 339 339 339 339 338 337 336 335 333 332 332 331 330 330 330 330 331 330 330 329 328 327 326 325 324 324 324 323 322 318 314
320 321 322 323 323 324 326 328 328 329 330 331 331 331 332 331 330 329 329 330 329 327 327 326 326 326 328 331 333 334 334 333 332 333 333 332 332 333 335 336 336 337 339 340 340 341 341 341 341 340 338 336 337 338 338 339 339 339 338 337 337 336 335 334 333 332 331 330 330 330 330 330 330 330 330 329 328 327 326 325 325 324 324 322 320
319 320 322 323 323 324 325 327 328 328 329 329 328 327 328 329 330 330 329 330 330 328 326 324 323 324 326 328 330 333 334 333 332 333 333 331 329 331 334 336 336 336 337 339 340 341 340 340 341 341 339 338 337 335 336 339 339 339 337 336 336 336 336 335 334 333 332 331 331 331 331 331 331 331 331 331 329 328 327 327 326 325 325 324 323
319 320 320 322 322 322 324 326 327 328 328 329 328 327 327 328 329 330 329 330 330 329 326 322 320 322 323 325 327 331 333 333 331 332 331 329 328 329 331 333 334 334 332 332 336 339 340 340 341 341 340 340 339 338 339 340 339 338 338 336 335 335 335 335 334 333 333 332 331 331 331 331 331 331 331 331 331 330 329 328 328 327 326 325 324
319 319 320 321 322 323 323 324 325 326 326 327 329 330 330 328 327 328 328 328 328 327 326 323 321 321 322 324 326 330 333 333 331 329 329 327 328 329 330 331 332 332 330 327 330 335 339 340 340 341 341 341 341 341 341 341 340 340 340 338 337 336 335 334 334 333 333 332 332 332 332 332 331 331 332 332 331 331 330 330 329 329 328 327 325
319 319 320 321 322 322 322 323 324 324 325 326 327 328 329 327 326 328 328 327 325 326 325 324 323 322 322 323 324 327 332 334 333 331 328 327 327 328 330 331 329 328 328 326 326 330 335 336 337 340 341 341 342 343 342 341 341 341 341 340 339 337 336 335 335 333 333 333 332 332 332 332 331 331 331 331 331 332 332 331 331 330 330 329 328
318 319 320 321 323 323 322 322 323 323 324 325 324 325 325 324 325 327 327 327 325 324 325 324 323 322 322 322 323 327 331 333 333 331 329 328 327 328 330 331 329 328 327 326 326 330 333 333 333 337 340 341 342 343 343 342 342 341 341 341 340 339 338 337 336 334 333 333 332 332 333 332 331 331 331 331 331 332 332 332 332 331 331 331 330
317 318 319 320 322 323 323 324 324 323 324 325 326 326 326 325 324 325 327 328 326 324 325 325 324 323 323 324 325 327 331 333 331 329 329 330 328 329 330 330 329 328 326 325 326 330 333 333 331 332 336 339 341 342 341 341 341 341 341 340 340 340 339 338 336 335 334 333 331 332 333 332 331 331 331 330 330 331 331 332 332 331 331 331 331
Wind_Speed
22 22 19 19 19 19 18 16 15 14 15 16 13 12 10 7 8 9 7 5 4 4 5 5 6 8 9 6 5 6 5 5 7 8 7 6 6 7 8 8 8 7 8 8 8 8 11 14 14 12 11 11 10 9 6 4 4 5 5 6 7 7 7 7 8 8 6 6 6 5 5 7 7 8 8 8 8 8 9 11 10 11 14 15 17
22 22 20 18 17 18 17 15 14 14 15 16 14 14 12 9 11 11 7 4 4 5 6 6 6 8 8 5 5 6 5 4 6 7 7 6 5 6 8 7 7 7 7 8 8 8 9 12 14 12 10 10 11 12 10 6 1 3 4 6 7 7 7 6 6 7 6 6 6 5 5 5 6 6 7 7 7 7 8 10 9 9 12 15 16
21 22 19 17 16 16 16 15 16 15 15 15 14 15 13 10 12 11 7 6 5 5 6 6 6 7 8 5 4 5 5 5 4 6 8 7 6 6 7 7 7 6 6 8 8 7 8 11 13 12 9 7 9 12 12 10 5 1 3 5 6 7 8 7 6 6 6 6 5 6 5 5 5 5 6 7 7 7 8 9 8 8 10 12 13
19 21 19 17 18 17 17 17 19 18 15 15 15 14 14 11 11 8 7 9 8 5 6 6 6 6 8 6 3 5 5 5 4 6 8 8 7 6 6 7 6 6 6 7 7 7 7 9 11 11 9 6 7 11 13 12 8 3 2 4 5 6 8 8 7 6 6 6 5 5 5 5 5 6 6 8 9 10 10 11 10 9 10 11 11
19 20 19 18 19 19 19 19 20 19 14 15 15 14 15 13 11 11 10 12 10 7 6 6 7 8 8 4 1 4 5 5 4 5 7 8 7 7 6 6 6 6 6 6 7 7 7 8 10 11 10 7 8 11 13 14 10 5 3 2 4 6 8 9 8 6 5 5 5 4 5 5 6 7 9 10 12 12 12 12 12 11 11 10 10
19 20 20 19 20 20 20 21 19 16 15 16 16 17 17 14 15 16 14 14 10 8 10 8 7 7 7 4 1 2 4 5 4 4 6 7 7 7 6 6 5 5 5 6 6 6 6 7 8 10 9 7 9 12 12 13 11 6 4 3 5 6 7 8 8 7 5 5 5 4 5 6 7 9 11 12 14 14 14 13 13 13 12 10 9
18 21 23 20 20 23 22 21 19 16 18 19 17 20 19 15 18 16 16 13 9 8 11 9 6 8 8 5 2 2 4 4 4 3 5 7 7 6 5 5 5 4 4 5 5 5 5 5 6 8 9 6 8 12 11 12 11 6 4 5 6 7 8 8 8 8 7 6 6 7 8 9 10 12 14 15 16 16 15 15 15 14 12 10 10
21 21 25 23 19 23 23 20 19 18 20 20 20 22 20 17 17 14 14 12 10 9 9 8 5 9 10 5 2 1 2 3 3 2 4 6 6 4 4 5 5 4 4 4 4 4 4 5 5 7 7 6 8 11 11 11 10 7 4 5 7 8 8 9 8 7 8 9 10 11 11 12 14 16 18 18 17 17 17 16 15 14 12 11 10
26 22 25 27 23 22 22 20 20 19 20 22 23 22 20 18 16 14 13 10 12 11 8 8 7 8 9 8 4 3 1 2 2 2 3 4 5 4 3 3 3 3 3 3 3 2 2 3 4 5 5 5 7 9 10 10 10 9 5 6 8 9 9 9 8 7 9 11 13 14 13 15 16 17 19 19 18 17 17 16 15 14 12 11 10
29 26 24 28 28 25 23 22 21 21 21 23 24 21 19 19 18 17 14 12 13 12 9 10 10 7 7 7 6 4 1 0 1 2 2 2 3 3 2 2 2 3 2 2 1 1 1 2 3 4 3 4 6 8 10 10 10 10 6 6 8 9 10 10 10 10 11 12 14 15 15 15 16 17 18 19 18 17 16 16 15 13 12 11 10
28 28 25 26 30 28 26 25 23 23 24 24 24 21 19 19 20 19 16 14 14 12 11 11 9 8 7 8 7 5 4 2 1 1 0 1 2 3 2 2 2 2 2 1 1 1 0 1 1 3 3 3 5 7 10 10 9 10 7 6 7 8 10 11 12 12 12 13 14 16 16 15 16 16 17 18 18 17 16 15 14 13 12 10 9
27 29 26 24 27 29 28 29 27 24 25 25 25 23 21 19 21 22 19 17 15 11 14 13 10 10 10 9 8 6 7 4 3 2 1 0 1 2 2 1 2 2 3 2 1 2 1 2 2 3 3 4 6 6 9 10 9 10 7 5 6 8 10 11 13 12 12 14 15 16 15 14 15 16 17 17 17 16 16 15 13 12 11 9 8
26 28 27 24 26 28 27 30 31 28 27 26 26 24 23 20 20 23 22 21 18 12 13 15 14 13 12 9 7 7 8 7 4 3 3 1 1 0 1 0 1 2 4 3 2 2 2 2 3 3 3 4 5 5 7 8 8 9 9 5 5 8 10 12 13 13 13 14 15 16 15 13 14 15 16 16 16 15 14 13 13 13 10 9 8
25 26 27 27 27 27 27 29 32 32 31 29 26 24 24 22 21 23 23 24 22 15 14 17 17 15 12 9 8 8 7 7 6 4 4 3 4 2 2 2 2 2 3 5 3 2 2 3 4 2 2 3 4 5 6 7 7 8 9 7 4 6 9 11 12 12 13 13 14 15 14 12 12 14 15 15 15 14 13 13 13 12 11 9 8
24 25 27 28 28 29 30 31 31 34 35 33 29 25 24 25 24 24 23 25 24 19 17 18 17 14 12 12 11 11 9 7 9 6 4 5 6 4 2 2 3 3 3 5 4 3 4 5 4 3 3 2 3 5 5 6 8 8 7 7 5 5 8 11 12 11 13 14 14 14 14 13 12 13 14 15 15 14 13 13 12 12 11 9 8
24 24 27 29 28 29 33 33 30 31 35 37 35 30 26 25 27 26 24 24 24 22 20 19 18 16 14 14 12 12 12 10 11 10 7 8 9 6 3 2 3 4 4 4 5 5 5 6 6 4 4 3 3 3 4 5 8 9 6 6 6 3 6 9 11 11 12 14 15 14 14 13 13 13 14 14 14 14 13 13 12 12 10 8 9
25 25 27 29 27 27 30 35 33 29 30 35 37 35 30 26 27 28 26 25 23 22 22 21 20 17 15 15 13 12 13 13 12 12 12 10 9 6 4 4 4 4 4 5 5 6 6 7 7 6 5 4 4 5 5 5 6 8 6 4 6 4 3 7 10 11 13 15 15 14 14 14 13 13 12 12 14 14 13 13 13 12 10 8 8
26 26 27 29 29 27 27 33 35 31 29 31 34 35 33 29 27 28 27 26 23 21 22 24 23 20 17 15 13 10 13 17 15 12 12 10 8 7 5 4 5 5 5 6 6 7 8 7 7 7 6 5 6 6 5 5 4 5 5 3 4 4 1 5 8 11 13 15 15 14 14 14 14 13 12 12 15 15 14 14 12 11 10 8 8
23 24 27 28 29 28 26 28 31 31 30 30 32 34 34 32 28 28 28 27 25 23 22 24 26 24 21 18 15 9 8 15 15 13 12 11 11 10 8 6 6 7 7 6 6 7 8 7 7 9 8 7 7 6 6 6 5 4 3 1 2 3 2 2 5 9 12 14 15 15 14 14 14 14 13 13 15 15 15 14 11 8 7 8 10
22 22 25 27 28 28 27 27 28 30 30 29 30 31 34 34 29 27 28 28 28 26 23 23 25 25 23 23 20 13 9 11 11 10 9 10 13 13 10 9 9 9 8 7 7 7 8 8 8 9 10 10 9 7 7 7 6 4 4 2 1 1 1 1 4 7 11 13 15 15 15 15 14 14 14 14 15 16 15 13 10 7 6 8 13
22 23 25 28 29 29 30 29 28 29 29 28 28 29 32 34 32 29 28 29 29 27 24 23 23 23 23 24 24 19 15 13 13 12 9 9 12 14 12 11 11 12 11 10 8 8 9 8 9 10 11 11 11 9 8 9 7 5 4 3 3 2 1 1 3 7 10 12 14 15 15 15 14 15 15 15 15 15 14 12 10 9 9 11 13
21 23 26 28 30 31 30 30 29 29 30 28 27 28 29 31 33 33 31 29 28 27 26 25 25 24 23 24 24 23 21 18 17 16 14 11 11 12 12 11 10 11 12 12 10 10 10 9 11 11 12 12 11 10 11 11 9 6 4 5 5 5 3 2 2 6 10 12 14 15 15 14 14 15 15 15 15 13 12 11 10 10 12 13 13
18 22 25 26 28 30 31 30 28 28 28 27 26 27 28 27 28 31 32 30 28 27 27 27 28 27 25 25 25 25 26 24 22 20 18 16 13 12 13 11 9 8 10 12 12 11 11 11 12 12 13 14 12 11 13 13 11 8 5 6 6 6 5 4 3 5 9 12 13 15 16 15 15 15 15 15 14 12 12 11 10 10 13 13 13
19 22 25 25 28 32 35 33 30 27 27 25 25 27 28 27 26 26 29 29 28 28 29 29 29 29 27 25 24 24 25 25 22 20 19 18 14 13 14 12 10 9 9 11 12 13 13 13 13 13 14 16 14 13 15 15 13 11 8 8 8 7 7 5 4 5 7 10 13 15 17 16 15 15 15 15 15 13 12 11 10 10 13 15 13
26 25 25 25 29 35 38 35 31 28 26 25 25 27 28 28 27 26 27 29 30 29 30 30 29 28 26 24 23 23 24 23 20 20 20 17 15 14 14 13 14 14 12 12 12 13 14 14 14 14 16 17 17 17 17 16 15 14 11 10 9 9 8 7 6 5 5 9 13 16 17 17 15 15 15 16 17 14 11 12 12 11 13 14 12
33 30 28 29 33 35 35 33 31 29 27 26 25 26 28 28 27 26 27 30 32 32 31 30 28 27 25 23 22 23 23 23 21 20 20 19 18 17 14 13 16 16 14 12 11 12 16 17 15 14 16 20 20 19 18 18 16 15 13 12 11 11 10 8 7 7 6 8 12 16 17 18 17 16 16 18 18 14 11 12 13 14 16 15 11
40 38 33 31 32 31 29 28 28 29 29 28 26 26 28 29 28 26 27 29 32 34 34 32 30 29 27 24 24 24 23 23 22 22 22 20 19 19 16 14 16 15 13 13 11 11 13 15 16 16 18 21 21 19 18 18 16 14 13 12 12 13 12 10 9 8 8 7 10 14 17 18 19 18 18 20 18 15 13 12 12 16 18 16 12
39 39 33 29 29 26 25 25 25 27 29 31 29 28 27 29 30 29 28 28 31 33 34 35 33 32 30 27 25 25 24 24 23 23 24 23 22 20 19 18 16 15 14 15 14 12 12 13 15 17 19 21 22 20 19 19 15 13 13 11 11 13 14 13 11 10 10 8 8 12 16 19 20 20 20 21 19 16 15 13 13 16 18 17 15
34 34 33 34 33 29 26 26 26 26 28 30 31 30 28 29 30 31 30 29 30 32 32 34 35 34 33 31 29 27 25 24 24 24 23 24 24 22 21 21 19 17 17 17 17 16 15 16 15 16 19 22 23 21 20 19 16 14 13 11 10 12 14 14 13 12 11 11 10 10 14 18 20 21 20 21 20 18 17 15 14 17 19 18 17
30 30 32 35 37 35 31 28 28 27 27 29 30 30 29 28 28 30 32 30 30 31 31 32 33 34 34 34 33 31 28 26 26 25 24 24 25 24 22 23 22 20 19 17 17 16 17 20 19 16 19 22 24 23 21 20 17 15 15 12 10 11 13 14 13 13 13 13 12 11 13 16 20 22 22 22 22 21 20 18 17 18 20 20 20
31 29 30 33 35 36 35 32 30 30 29 29 30 30 30 29 29 29 31 32 32 32 32 32 32 32 33 34 35 35 32 29 26 26 26 25 25 25 25 24 23 23 22 18 16 15 17 22 22 19 21 23 23 23 22 20 18 17 17 15 12 11 13 14 14 14 14 14 14 14 14 15 19 23 24 23 24 23 22 21 20 21 22 22 22
31 30 31 33 34 35 36 35 33 31 31 31 31 29 29 30 30 30 31 32 33 33 33 32 31 31 32 32 34 35 35 33 30 28 28 28 27 27 27 26 24 24 24 22 20 17 16 20 21 20 23 25 23 22 23 21 19 17 18 17 15 13 14 15 15 15 15 15 15 15 16 16 18 22 25 25 25 24 23 23 22 22 23 25 24
30 30 32 33 33 34 36 37 36 34 32 32 32 29 29 31 31 31 32 32 33 34 33 32 31 31 31 32 33 34 35 35 33 31 30 29 30 29 29 28 27 26 25 25 24 20 16 19 20 19 23 26 24 22 23 23 21 20 19 19 18 16 15 15 17 17 17 17 16 16 17 18 18 21 24 27 27 26 24 24 24 23 24 26 26
32 31 32 34 34 35 36 37 38 38 34 32 32 30 30 31 32 32 34 34 33 33 33 34 33 32 32 32 32 33 33 34 34 34 32 31 31 31 31 31 30 29 27 27 28 25 20 20 20 21 25 28 26 23 23 22 22 22 21 21 21 19 17 16 17 18 18 18 18 18 18 19 20 21 24 27 29 28 27 26 26 25 25 26 27
37 35 33 33 34 35 36 36 37 39 38 35 33 32 31 31 32 32 35 36 35 33 33 35 35 34 33 33 32 32 31 31 33 34 33 32 31 31 32 32 32 30 28 28 29 28 25 23 22 23 27 30 28 25 23 21 21 22 22 23 23 20 19 18 17 17 18 19 20 20 20 20 21 21 23 25 28 29 28 28 27 27 27 28 28
37 38 36 33 33 35 37 37 36 37 40 39 36 34 32 31 32 32 33 35 37 36 34 34 34 34 35 35 34 32 31 30 31 32 33 33 31 31 32 32 32 31 29 29 31 30 28 27 25 26 29 31 29 28 25 22 21 22 21 23 25 23 21 20 19 18 18 19 21 22 21 21 22 23 23 24 27 29 29 28 28 27 28 30 30
34 37 38 36 35 36 38 37 35 34 38 40 38 36 34 32 32 32 32 34 36 37 36 35 34 33 34 36 36 35 33 31 30 31 32 33 33 32 31 32 31 30 30 31 31 31 30 29 28 27 28 30 30 29 27 25 23 22 21 22 25 26 24 23 22 20 19 19 20 22 23 22 22 23 24 25 26 28 29 29 28 27 29 31 32
32 34 37 39 38 38 38 37 36 35 37 37 37 36 35 34 33 33 32 33 35 38 38 37 36 34 34 35 35 35 35 34 32 31 32 33 33 32 31 31 30 30 30 32 32 32 31 30 29 28 30 31 31 30 29 26 25 24 23 23 25 27 26 25 24 23 22 21 20 21 23 23 24 24 26 27 27 28 29 30 29 28 29 31 33
33 34 35 38 40 39 39 39 38 37 36 35 35 34 34 35 35 34 32 31 34 37 39 39 39 38 36 34 34 34 35 35 34 33 33 33 33 33 32 31 30 29 30 32 33 33 33 31 28 28 30 31 31 31 29 26 25 25 26 27 27 28 28 27 26 25 25 24 22 22 23 23 23 24 25 27 28 29 30 31 31 30 30 31 33
34 35 35 36 39 40 39 38 39 39 38 37 36 36 35 35 36 35 33 32 32 34 37 39 40 40 39 37 35 34 34 35 35 34 35 34 33 34 33 32 31 31 30 32 33 34 34 34 31 28 29 31 31 31 29 27 28 30 30 30 29 30 30 29 28 27 27 26 25 24 23 23 23 24 25 27 29 31 31 31 33 33 32 32 33
34 35 35 35 37 39 40 39 40 41 40 39 39 38 37 37 37 36 34 32 33 33 34 36 39 42 42 41 40 38 37 37 37 37 36 36 36 35 34 33 33 33 32 33 34 34 35 36 34 30 29 31 34 34 33 33 34 33 32 31 31 30 30 30 30 30 29 27 26 26 26 25 26 27 28 29 30 32 33 34 34 35 35 35 34
33 35 36 36 36 38 40 40 41 41 42 42 40 39 38 38 38 37 35 33 33 32 32 34 37 42 44 44 43 42 42 41 41 40 39 39 39 37 35 34 34 36 35 34 35 36 36 36 37 35 33 33 36 38 38 37 35 33 33 34 32 30 29 30 32 32 32 30 28 28 28 27 28 30 31 31 30 31 34 36 37 37 37 37 37
33 33 35 36 37 38 39 41 42 42 43 44 42 40 39 39 38 38 37 36 34 33 32 33 35 40 44 46 44 43 43 44 44 44 42 41 41 40 37 36 35 36 38 37 37 38 37 37 38 38 38 38 38 40 40 38 37 36 35 34 34 33 32 33 34 34 33 32 31 31 30 29 29 31 32 32 31 31 33 34 36 37 37 38 39
32 33 34 35 36 37 39 41 42 43 43 44 44 41 40 40 40 39 38 38 36 34 33 33 34 37 41 44 45 44 44 44 45 46 44 42 42 41 39 37 36 36 38 40 41 40 39 38 37 38 40 41 41 41 41 41 40 38 36 35 36 36 35 35 36 36 34 32 31 32 32 30 30 32 34 33 32 31 31 31 32 35 36 38 39
33 33 35 35 36 38 39 41 42 43 44 44 46 45 40 38 40 40 38 38 39 37 34 32 32 35 37 41 44 47 47 45 44 44 44 43 42 41 40 38 37 37 38 40 42 42 39 38 38 38 40 41 42 43 43 43 42 40 38 38 37 39 39 37 37 36 34 32 32 33 34 33 32 34 35 34 33 32 32 31 31 33 34 37 38
34 35 35 36 36 38 40 40 40 42 44 45 46 48 45 38 37 40 40 38 38 39 36 34 34 34 36 38 43 47 48 46 44 43 43 44 43 43 42 41 39 39 40 41 42 43 41 38 37 38 39 40 42 43 43 43 43 42 41 39 38 38 37 36 34 34 34 34 33 34 36 36 35 36 37 35 33 33 33 32 32 32 33 35 37
34 35 36 37 38 39 41 41 40 40 42 44 44 46 47 41 34 34 37 35 36 37 37 36 36 36 37 39 42 46 47 47 45 44 43 44 44 44 44 44 42 41 42 42 42 42 43 41 39 38 38 38 39 41 43 43 44 44 42 38 35 33 32 32 33 33 35 36 34 34 37 38 37 38 38 35 33 33 33 32 32 32 31 33 35
34 34 35 37 38 38 40 41 40 40 40 42 42 43 45 41 34 31 34 36 36 38 38 37 37 38 39 40 42 45 47 47 45 44 44 44 43 44 44 45 45 43 43 43 43 43 45 46 44 41 38 36 36 38 42 43 43 43 41 38 34 32 32 33 35 35 35 37 37 36 38 38 38 39 38 35 34 34 34 33 33 32 31 31 33
33 34 35 37 37 36 37 38 38 38 38 39 39 41 43 41 35 32 36 39 40 39 39 38 38 38 40 42 43 43 45 47 46 46 46 45 45 45 44 44 44 44 42 42 44 47 48 49 49 46 42 38 34 35 40 44 44 41 40 40 38 37 37 36 37 37 36 37 38 37 38 38 37 38 37 34 34 35 35 35 34 33 32 31 31
30 29 31 32 32 32 34 35 35 35 35 35 36 39 42 43 40 37 37 40 42 40 40 40 39 39 40 42 43 43 43 45 45 45 46 45 45 46 46 44 43 44 43 40 43 49 52 51 51 51 49 44 39 36 36 39 42 42 41 41 41 40 40 40 39 37 35 36 38 38 39 39 38 37 36 33 34 37 37 36 35 34 33 32 31
25 24 25 27 28 28 30 31 32 34 35 35 34 35 38 41 43 42 40 40 42 41 40 41 40 40 41 41 40 41 43 44 44 44 44 44 45 45 45 45 45 46 44 41 41 46 51 53 53 53 53 51 49 45 37 32 35 40 41 41 40 41 43 42 41 38 36 38 39 39 42 42 39 38 37 34 35 38 38 37 36 35 34 32 32
Wind_Direction
205 196 194 194 196 197 192 193 192 189 195 181 173 185 177 182 194 183 175 160 166 148 106 95 92 94 105 116 102 86 83 71 49 54 74 78 72 72 66 58 57 64 70 69 66 56 47 48 50 55 61 67 76 78 85 110 146 161 169 167 154 146 148 152 153 161 167 165 173 169 140 134 142 141 132 127 123 116 106 102 97 99 106 108 110
212 201 199 197 198 200 191 193 196 194 203 183 176 191 179 192 192 168 168 155 159 161 118 94 101 101 105 113 101 90 88 79 54 54 67 73 73 69 70 65 61 66 70 72 68 59 48 46 47 46 51 54 61 61 56 57 82 171 181 189 179 171 169 167 164 165 171 180 188 188 174 157 158 155 147 141 134 129 123 119 115 112 119 123 122
216 206 200 199 199 201 190 194 200 192 205 194 180 191 183 191 183 163 185 183 153 149 121 103 112 112 107 103 99 94 83 80 69 61 63 72 79 68 72 74 68 69 71 75 74 62 49 47 44 39 42 45 53 51 43 44 43 132 171 186 188 190 186 180 183 182 185 200 208 208 216 205 188 181 171 160 148 146 140 134 132 131 132 136 139
223 214 199 202 204 206 196 199 204 186 201 207 181 189 194 190 180 182 203 170 151 140 119 116 114 98 108 116 97 85 80 86 78 65 63 68 81 76 72 76 75 74 72 76 76 67 53 47 44 40 42 47 50 42 34 38 41 58 140 174 180 191 194 187 194 199 198 209 217 215 219 213 198 185 173 160 150 148 145 142 141 145 145 141 141
226 220 202 207 208 210 207 208 208 183 195 208 185 195 198 191 195 207 194 152 150 166 144 135 117 94 106 124 64 70 81 94 80 65 63 57 69 78 77 74 78 82 74 75 78 72 60 49 49 45 45 54 47 34 27 31 35 43 73 131 158 170 183 187 192 195 191 188 189 191 190 187 180 166 156 150 146 144 145 145 145 152 154 145 140
216 218 204 212 213 214 215 212 206 187 195 197 194 206 191 192 207 203 189 156 150 171 152 138 133 130 124 102 24 63 73 99 90 67 64 52 56 70 78 74 75 85 74 76 82 76 65 54 56 54 53 59 40 25 21 26 27 29 49 95 129 134 151 164 171 174 170 160 157 157 158 159 159 152 148 146 144 144 146 147 147 152 153 148 144
209 220 207 208 216 218 221 216 205 199 202 188 197 212 188 196 217 204 196 179 161 166 153 141 132 145 141 100 66 42 52 96 91 71 68 52 51 64 78 76 68 76 71 77 89 82 73 62 58 61 66 63 27 16 16 21 25 27 47 90 114 120 127 133 142 156 154 147 142 136 137 140 142 140 140 140 141 145 148 151 152 150 150 150 149
206 224 216 208 213 219 222 221 212 212 211 193 197 210 192 199 217 202 205 200 184 178 155 152 132 125 136 122 115 311 14 97 85 73 78 61 62 62 65 74 74 75 68 75 92 85 78 76 59 55 63 51 21 15 12 18 29 32 45 86 106 115 123 127 134 143 137 132 132 130 128 130 132 131 131 133 138 146 150 155 157 151 149 152 154
202 217 223 214 211 215 217 217 217 217 217 208 204 207 196 199 205 192 203 204 189 192 169 170 177 148 143 133 145 225 274 111 96 79 78 66 67 67 60 77 92 90 78 83 92 80 69 84 77 58 47 32 24 18 10 18 34 37 50 89 99 105 117 129 134 130 131 133 132 128 125 127 129 128 131 135 139 146 151 157 158 152 153 156 161
203 209 221 220 214 211 213 213 217 220 220 219 215 207 197 202 203 192 198 196 187 198 187 185 198 189 171 154 162 196 213 182 126 101 93 61 48 65 77 75 101 104 99 105 95 93 46 65 91 81 54 27 29 20 14 19 32 38 55 91 95 99 109 125 131 122 127 134 131 128 127 130 131 132 137 139 141 146 151 156 156 154 159 164 167
208 207 212 220 219 214 214 213 213 219 221 224 222 209 198 206 208 196 195 191 186 198 194 188 192 190 182 170 173 169 157 213 279 148 211 4 41 71 89 76 99 124 140 154 135 174 247 355 57 71 61 43 42 25 16 19 31 39 52 87 97 104 109 122 128 122 124 129 127 128 130 132 134 137 139 139 141 146 149 152 157 158 164 169 167
215 212 210 214 218 218 220 215 208 212 217 220 223 213 199 208 213 200 194 190 181 193 206 193 173 177 177 167 173 161 156 190 234 234 279 295 106 88 91 109 131 158 175 179 164 192 247 290 312 27 44 43 45 32 18 17 27 38 44 73 98 108 117 124 124 125 128 127 127 130 131 133 137 140 140 139 142 146 149 154 159 158 161 166 164
221 220 218 214 211 215 225 224 213 209 211 214 220 216 203 207 217 206 198 193 179 177 204 192 170 183 186 169 172 166 169 187 206 252 296 313 264 324 30 66 162 173 176 179 180 192 228 264 284 343 19 30 39 35 23 17 24 38 39 47 91 110 122 127 123 127 132 128 130 134 134 137 142 143 141 142 146 150 151 155 158 155 157 162 162
223 224 225 221 211 209 222 230 223 215 212 212 213 213 207 207 217 213 204 200 190 182 198 191 180 193 191 172 171 171 188 188 170 224 272 288 291 279 297 293 239 216 183 184 192 196 209 239 264 300 329 2 29 31 25 21 27 40 36 29 65 115 124 131 129 131 134 132 134 135 135 139 144 145 147 148 152 156 154 154 156 156 159 161 164
224 228 228 225 215 209 218 228 230 224 220 219 216 209 206 210 217 217 209 205 200 195 206 202 194 198 186 174 180 177 186 189 173 189 236 252 264 260 266 255 224 230 215 191 193 200 202 219 246 268 281 316 9 18 18 20 27 39 40 25 34 110 130 135 134 135 137 137 136 135 135 138 141 146 152 156 159 160 158 159 160 158 164 165 164
222 227 230 228 217 213 221 228 232 231 226 225 224 216 206 211 219 219 212 210 205 199 207 210 202 199 188 179 184 186 189 196 189 181 194 231 246 241 243 259 228 219 227 210 195 202 205 211 229 245 260 285 313 342 356 8 20 30 41 28 21 71 138 139 137 140 142 142 142 141 142 143 145 150 159 166 165 163 163 167 167 162 169 168 158
220 224 229 232 225 217 224 231 233 235 231 225 227 225 212 210 220 220 214 213 209 203 207 212 208 202 195 187 183 193 204 204 194 184 191 216 234 232 240 263 252 223 224 224 204 206 209 207 214 225 241 267 279 296 329 349 8 20 33 35 18 29 136 147 145 148 146 147 149 149 150 151 154 162 172 174 165 163 168 172 172 166 165 163 156
221 224 229 233 231 223 221 229 232 233 232 226 226 227 218 214 219 219 215 214 210 206 210 214 212 204 198 197 194 202 212 200 189 187 191 201 211 223 245 251 243 236 228 228 217 212 210 208 210 213 221 236 259 282 301 315 338 4 21 37 20 16 86 158 157 157 155 154 156 158 159 159 162 170 178 175 165 166 173 176 178 172 164 165 165
221 224 228 231 231 227 220 223 229 231 230 227 225 225 220 216 218 219 217 216 210 205 211 217 218 213 202 201 205 208 204 193 188 186 188 189 187 205 238 238 227 234 233 233 230 219 215 214 210 207 212 222 241 267 277 282 301 319 332 2 25 17 20 174 170 164 163 161 162 166 165 163 169 174 179 176 170 174 178 178 185 189 181 174 167
221 223 227 230 229 230 227 223 225 229 230 227 223 224 221 214 215 219 219 219 215 208 210 217 222 222 210 204 210 205 183 186 194 193 191 192 187 198 224 223 218 230 233 233 235 229 218 212 211 208 208 219 232 249 260 266 281 284 279 286 272 352 12 224 194 179 171 167 168 172 170 169 175 177 180 179 175 181 184 185 192 201 198 174 164
220 221 226 228 227 232 236 229 223 225 229 229 224 223 222 216 212 214 216 217 218 213 212 217 224 226 215 207 208 204 192 187 193 199 197 194 194 201 208 205 213 228 230 230 230 227 221 212 216 216 210 219 232 240 248 257 268 266 248 256 255 243 241 204 207 193 183 175 172 174 174 176 178 176 180 183 181 188 193 195 198 193 185 172 166
225 226 227 227 225 228 234 232 225 223 227 229 227 223 223 222 216 214 216 217 218 217 216 219 224 227 223 216 212 211 210 204 202 209 211 211 214 211 209 209 220 229 228 230 229 222 221 218 218 218 212 220 232 235 243 256 269 270 240 235 246 249 247 232 223 202 191 183 176 177 177 180 181 177 183 190 191 197 198 199 203 187 176 172 167
228 230 230 229 226 224 226 228 225 224 227 228 228 226 224 226 224 220 220 220 221 220 219 222 225 227 229 230 228 225 224 222 219 223 224 224 226 218 218 228 236 237 228 226 228 223 221 221 219 216 212 220 229 230 240 256 268 273 246 226 234 246 249 244 244 215 197 191 183 179 180 182 184 184 188 194 198 208 206 199 204 192 178 173 166
241 236 232 229 228 225 223 222 220 222 229 230 227 227 226 226 227 225 222 220 221 221 221 224 226 229 232 235 237 232 230 229 224 225 226 222 219 216 222 228 220 221 221 217 221 221 221 223 221 216 212 217 225 229 237 250 261 267 254 232 229 237 245 244 239 231 210 199 189 182 181 184 189 191 194 197 200 207 206 199 205 200 184 176 170
249 243 240 235 232 231 227 223 218 219 230 235 229 225 225 226 228 228 222 216 216 219 221 224 226 229 232 233 233 229 226 225 220 223 226 219 213 212 221 224 209 205 212 217 223 219 218 222 220 217 213 215 223 230 237 246 252 258 253 237 228 230 241 243 234 237 232 212 197 186 182 184 193 196 197 205 208 207 207 200 201 202 189 184 183
246 242 241 236 231 230 230 228 223 220 227 236 235 226 221 222 226 229 225 218 216 217 219 223 225 226 228 227 225 223 221 220 219 222 225 220 211 203 205 211 202 202 211 217 226 225 218 217 216 218 214 214 223 231 237 246 250 251 249 239 228 227 236 238 231 235 241 226 207 194 186 186 194 198 200 211 216 214 217 212 201 197 193 194 198
240 235 233 229 226 225 228 231 230 227 229 235 238 233 224 219 220 226 229 224 220 220 220 221 222 221 223 222 222 222 220 218 218 219 221 221 213 204 201 198 190 195 209 212 220 231 227 217 212 217 216 215 225 234 238 246 251 249 249 241 226 225 233 233 226 228 235 233 216 201 193 190 193 199 205 216 222 217 222 227 212 199 197 202 204
236 232 230 231 232 230 228 232 235 233 234 236 238 237 232 226 221 222 228 229 226 225 223 223 223 221 221 221 222 224 222 219 217 218 220 220 217 213 211 209 199 195 202 207 210 220 229 221 209 213 219 222 230 236 238 244 247 244 248 248 232 225 230 233 226 224 231 234 226 210 200 195 196 200 206 217 225 222 224 234 223 204 201 206 203
238 235 233 236 240 239 235 235 237 235 235 237 237 237 236 233 228 223 223 227 229 229 228 227 227 225 222 222 223 225 225 222 218 218 221 220 219 219 217 218 216 206 204 210 214 214 218 222 217 212 216 224 232 237 238 241 241 240 245 251 245 232 230 233 227 223 228 232 236 229 211 202 199 200 206 217 225 225 225 234 228 208 201 206 206
241 238 234 235 238 240 240 237 236 236 236 237 236 236 236 236 235 229 223 222 226 228 229 229 230 228 226 225 226 226 226 224 221 220 221 222 220 218 218 221 222 218 217 219 222 220 212 216 221 217 215 222 229 235 240 242 237 234 240 247 249 241 236 237 230 224 226 230 235 237 227 215 206 202 206 216 225 225 224 229 225 209 204 208 211
238 236 234 233 234 236 237 236 235 236 237 237 236 236 236 236 237 234 227 222 223 226 228 229 230 230 229 229 228 228 227 224 224 223 222 223 222 218 217 221 224 224 226 225 225 226 219 218 220 216 217 226 230 232 237 240 236 232 234 241 244 240 237 238 236 228 226 230 234 235 233 228 216 207 206 213 224 227 224 227 224 209 205 211 214
238 237 235 233 231 231 233 233 233 233 233 236 236 235 235 234 235 235 231 226 223 224 227 229 230 230 230 230 229 230 228 224 224 225 224 223 224 222 219 221 224 225 228 228 226 230 230 228 225 214 216 227 232 233 233 232 231 231 233 239 243 240 235 235 236 233 228 229 234 234 234 233 225 215 211 212 223 228 222 223 223 212 208 213 216
240 239 238 235 230 229 231 232 232 232 233 235 235 233 232 232 233 234 233 230 225 224 225 227 229 229 229 230 230 230 229 226 225 226 227 226 226 227 226 224 224 224 227 229 228 229 227 223 225 216 216 226 230 232 235 231 228 229 229 233 241 244 241 235 233 233 231 229 231 232 233 234 230 224 218 214 220 228 226 223 223 219 215 216 216
240 240 240 238 232 228 229 232 234 234 234 234 233 231 231 231 232 233 232 231 228 226 225 225 227 228 228 229 230 230 229 228 227 226 227 228 228 229 229 229 228 224 225 228 227 227 221 216 218 214 215 226 231 230 235 236 234 230 225 227 235 242 245 244 238 234 230 228 229 231 232 233 232 231 226 221 221 226 228 227 227 224 221 219 218
240 240 241 241 237 232 229 230 233 235 233 233 233 232 232 232 233 234 233 231 229 227 225 225 225 226 228 229 228 229 228 228 229 227 227 229 229 229 229 231 233 228 224 228 229 225 220 216 216 213 213 223 231 232 234 239 239 232 223 224 233 240 243 247 246 238 230 226 226 229 232 233 234 234 233 230 228 229 229 229 229 226 222 222 222
240 240 241 241 239 237 234 230 231 234 233 231 232 233 233 233 234 235 234 232 230 227 224 223 224 225 228 229 227 227 227 226 229 228 226 227 229 229 228 230 235 231 223 226 230 226 220 219 218 218 219 223 228 232 234 234 236 233 225 224 231 238 242 245 248 245 237 230 228 231 233 234 235 236 237 236 234 233 233 232 230 229 225 223 225
241 240 240 241 239 239 238 233 231 234 233 231 231 232 233 233 233 235 235 233 231 228 224 222 223 225 227 229 229 227 226 226 228 227 225 225 225 228 229 229 233 231 221 223 230 226 221 220 220 220 223 225 227 230 232 233 232 228 223 223 231 237 240 241 244 247 245 237 230 229 232 234 235 237 239 241 240 237 236 235 234 233 229 226 227
241 240 239 240 240 240 239 237 234 232 232 231 230 230 231 232 232 233 234 234 232 230 228 225 222 222 224 228 230 230 227 225 225 225 224 222 223 226 228 229 230 228 220 221 228 226 220 220 223 221 221 224 224 224 228 233 233 228 221 222 229 236 238 238 238 240 243 242 235 229 231 234 236 236 238 241 242 241 239 238 238 235 233 231 230
243 241 239 238 238 239 240 240 236 232 230 229 228 226 227 229 230 231 232 233 233 232 232 230 225 222 222 224 229 232 231 229 226 224 223 222 223 224 226 228 229 227 223 222 226 226 220 217 220 222 222 223 224 224 226 231 234 232 227 222 224 229 233 237 238 237 239 242 241 237 235 237 239 240 240 241 242 242 241 240 239 237 235 235 235
244 241 240 240 238 237 238 240 238 234 230 227 226 224 224 226 229 232 232 233 234 234 235 233 229 226 225 224 226 229 231 231 228 224 223 224 224 224 225 228 228 228 227 225 225 226 222 217 216 219 222 222 221 222 224 223 223 226 228 228 230 232 232 235 239 239 240 243 243 241 238 236 237 240 242 242 242 242 242 241 241 239 237 237 237
247 243 240 240 239 237 236 236 238 237 233 228 226 224 223 225 228 232 233 234 234 235 237 236 231 229 228 226 226 226 227 230 229 225 223 222 222 222 223 226 228 229 229 228 226 226 223 219 216 215 219 221 219 218 220 223 224 225 226 228 233 236 235 236 239 241 242 244 244 243 242 239 238 240 241 242 241 240 240 241 241 240 239 238 238
248 246 242 239 239 239 238 236 236 236 234 230 228 227 225 225 228 231 233 234 234 235 237 237 233 231 232 231 229 228 227 229 230 229 228 225 223 221 220 222 227 230 230 230 229 227 224 222 218 213 214 221 223 222 224 228 229 228 227 227 230 234 234 235 238 241 243 243 243 244 245 243 243 243 245 246 244 240 239 239 240 239 239 239 239
249 247 245 242 239 239 239 237 235 235 234 231 229 228 227 226 227 229 231 233 235 236 236 236 235 234 234 235 234 233 232 231 231 232 232 230 228 226 222 219 222 229 232 231 230 228 225 224 222 216 215 221 225 227 228 229 228 228 230 229 229 230 230 230 233 237 241 242 243 245 247 245 243 245 248 250 248 245 244 243 243 242 241 240 240
249 248 246 244 241 239 239 239 236 235 235 232 228 226 226 226 227 228 229 231 234 237 236 236 236 236 237 237 237 238 238 237 235 234 234 233 232 232 228 220 217 224 232 234 234 231 226 224 225 221 219 222 226 228 229 229 229 231 231 231 230 231 232 234 235 238 241 243 243 246 248 247 245 246 250 252 252 252 253 251 249 246 245 244 243
248 248 247 245 243 240 239 240 237 235 234 231 229 228 228 229 229 228 228 230 233 237 238 237 238 240 240 240 239 239 241 240 238 236 235 235 234 234 232 226 219 219 226 233 237 237 231 227 226 227 226 224 225 230 233 232 231 231 231 232 231 230 233 239 243 243 244 244 242 243 248 250 248 248 251 253 254 256 257 256 254 251 248 247 246
247 247 245 244 244 241 240 240 238 235 233 231 230 231 232 235 235 229 227 229 233 237 240 240 241 242 242 243 242 241 241 240 238 235 235 235 235 235 234 230 225 221 223 228 233 236 236 231 228 230 232 229 229 234 237 235 233 234 234 236 236 234 237 246 249 246 245 246 244 242 246 250 250 250 253 254 253 255 259 260 259 256 252 249 248
249 248 246 244 243 242 241 242 241 240 236 232 231 231 231 236 240 232 227 229 233 238 242 244 244 243 243 245 245 243 242 241 239 237 236 236 236 236 235 232 229 227 227 230 233 236 238 236 232 231 233 234 234 236 237 238 239 240 241 244 247 247 246 246 244 241 242 246 246 244 246 249 249 250 255 257 255 255 257 259 260 260 258 254 251
251 252 249 246 244 244 244 244 244 243 239 234 232 231 230 235 238 233 232 234 235 238 243 245 245 243 242 245 247 245 243 242 240 238 237 237 236 236 235 232 230 229 231 235 238 237 237 238 236 233 233 233 233 235 238 240 242 242 240 240 243 243 238 234 234 236 238 240 243 244 247 249 248 250 254 257 256 257 258 257 259 260 261 259 255
255 256 254 251 248 246 246 247 246 244 242 237 234 230 229 231 230 228 233 237 238 238 242 244 244 245 244 245 247 247 244 243 242 241 239 238 237 237 235 232 231 231 233 238 240 237 234 236 237 235 234 234 232 233 236 239 242 242 235 231 233 233 230 228 231 233 233 235 240 242 243 245 246 249 252 254 257 259 260 259 260 260 261 262 260
257 258 257 256 252 248 247 249 247 245 243 241 237 233 231 231 231 231 233 237 238 239 241 243 243 244 246 247 248 248 245 243 243 242 240 238 236 235 234 233 232 231 232 237 239 235 233 235 236 235 235 235 234 235 233 233 239 240 236 234 235 231 229 230 233 233 231 235 239 238 237 241 243 244 248 251 255 258 259 259 260 260 260 261 262
260 263 257 252 249 248 248 248 246 244 240 235 231 230 229 231 234 234 233 236 239 240 240 241 241 242 244 246 249 249 246 243 243 242 240 236 234 234 233 233 232 232 233 234 235 234 234 234 234 234 234 234 235 240 239 231 232 236 238 239 237 233 233 235 235 231 228 235 240 236 234 237 237 237 239 241 246 254 258 258 257 258 260 262 262